This is the latest recevied weather packets stored in our database for station/object KF4CQ. If no packets are shown the sender has not sent any weather packets the latest 10 day(s).
| Time | Temp. | Humidity | Pressure | Rain* | Wind** | Luminosity | Snow |
|---|---|---|---|---|---|---|---|
| 1777683123 | 26.11° C | 71% | 1012.1 hPa | 0 mm | - | 0 W/m² | - |
| 1777682819 | 26.11° C | 70% | 1012.3 hPa | 0 mm | - | 0 W/m² | - |
| 1777682515 | 26.11° C | 70% | 1012.3 hPa | 0 mm | - | 0 W/m² | - |
| 1777682213 | 26.11° C | 69% | 1012.2 hPa | 0 mm | - | 0 W/m² | - |
| 1777681910 | 26.67° C | 68% | 1012 hPa | 0 mm | - | 0 W/m² | - |
| 1777681600 | 26.67° C | 67% | 1012 hPa | 0 mm | - | 0 W/m² | - |
| 1777681298 | 26.67° C | 67% | 1011.9 hPa | 0 mm | - | 0 W/m² | - |
| 1777680996 | 26.67° C | 66% | 1011.7 hPa | 0 mm | - | 0 W/m² | - |
| 1777680693 | 27.22° C | 65% | 1011.6 hPa | 0 mm | - | 1 W/m² | - |
| 1777680390 | 27.22° C | 64% | 1011.7 hPa | 0 mm | - | 1 W/m² | - |
| 1777680088 | 27.78° C | 63% | 1011.6 hPa | 0 mm | - | 2 W/m² | - |
| 1777679784 | 27.78° C | 62% | 1011.4 hPa | 0 mm | - | 5 W/m² | - |
| 1777679480 | 27.78° C | 62% | 1011.4 hPa | 0 mm | - | 8 W/m² | - |
| 1777679175 | 27.78° C | 61% | 1011.4 hPa | 0 mm | - | 8 W/m² | - |
| 1777678873 | 28.33° C | 59% | 1011.2 hPa | 0 mm | - | 10 W/m² | - |
| 1777678571 | 28.33° C | 58% | 1011.1 hPa | 0 mm | - | 12 W/m² | - |
| 1777678268 | 28.89° C | 57% | 1011.1 hPa | 0 mm | - | 16 W/m² | - |
| 1777677964 | 28.89° C | 56% | 1011.1 hPa | 0 mm | - | 18 W/m² | - |
| 1777677662 | 28.89° C | 56% | 1011.2 hPa | 0 mm | - | 24 W/m² | - |
| 1777677359 | 28.89° C | 54% | 1011.1 hPa | 0 mm | - | 24 W/m² | - |
| 1777677057 | 28.89° C | 54% | 1011.1 hPa | 0 mm | - | 26 W/m² | - |
| 1777676756 | 28.89° C | 55% | 1011 hPa | 0 mm | - | 29 W/m² | - |
| 1777676453 | 28.89° C | 55% | 1011.1 hPa | 0 mm | - | 29 W/m² | - |
| 1777676150 | 29.44° C | 55% | 1010.8 hPa | 0 mm | - | 21 W/m² | - |
| 1777675846 | 29.44° C | 54% | 1010.7 hPa | 0 mm | - | 21 W/m² | - |
* Rain latest hour (hover to see other rain measurements)
** Current wind speed in m/s (hover to see current wind gust speed)